Regional Weather Roundup
Issued by NWS

Home | Current Version | Previous Version | Graphics & Text | Print | Product List | Glossary On
Versions: 1 2 3 4 5 6 7 8 9 10 11 12 13 14 15 16 17 18 19 20 21 22 23 24 25 26 27 28 29 30 31 32 33 34 35 36 37 38 39 40 41 42 43 44 45 46 47 48 49 50
194
ASUS43 KLOT 260209
RWRIL

ILLINOIS REGIONAL WEATHER ROUNDUP
NATIONAL WEATHER SERVICE CHICAGO/ROMEOVILLE IL
900 PM CDT TUE JUL 25 2017

NOTE: "FAIR" INDICATES FEW OR NO CLOUDS BELOW 12,000 FEET WITH NO
SIGNIFICANT WEATHER AND/OR OBSTRUCTIONS TO VISIBILITY.

* THESE STATIONS ARE NOT UNDER NWS QUALITY CONTROL. THEY ALSO MAY NOT
  REPORT WEATHER SUCH AS PRECIPITATION OR FOG.

ILZ001-002-007-009-015-016-024-260300-
NORTHWEST ILLINOIS

CITY           SKY/WX    TMP DP  RH WIND       PRES   REMARKS
MOLINE         CLEAR     73  68  84 SE3       30.09R
STERLING*      CLEAR     71  66  84 SE6       30.12R
SAVANNA*       CLEAR     72  67  84 SE7       30.10R
$$

ILZ003-004-008-010-011-017-018-260300-
NORTH CENTRAL ILLINOIS

CITY           SKY/WX    TMP DP  RH WIND       PRES   REMARKS
ROCKFORD       PTCLDY    72  62  71 S9        30.13S
FREEPORT*      CLEAR     67  64  87 SE6       30.14R
ROCHELLE*      PTCLDY    67  64  88 SE6       30.14S
DE KALB*       CLOUDY    69  64  84 SE6       30.16R
PERU*          CLEAR    N/A N/A N/A SE6       30.14R
$$

ILZ005-006-012>014-019>023-260300-
NORTHEAST ILLINOIS

CITY           SKY/WX    TMP DP  RH WIND       PRES   REMARKS
CHICAGO-OHARE  PTCLDY    74  56  53 S10       30.14R
CHICAGO-MIDWAY PTCLDY    77  57  50 SE8       30.14R
AURORA         CLOUDY    71  62  73 CALM      30.16R
LANSING*       PTCLDY    71  56  60 CALM      30.16R
JOLIET*        CLEAR     71  61  70 CALM      30.15R
WAUKEGAN       CLEAR     70  63  78 SE7       30.14R
DUPAGE AIRPORT CLEAR     69  59  70 S6        30.15R
WHEELING       CLEAR     73  62  68 CALM      30.15R
MORRIS*        CLEAR     70  60  70 E5        30.14R
ROMEOVILLE*    CLEAR     70  56  62 SE5       30.15R
NORTHERLY ISL    N/A     73  57  57 S8          N/A
$$

LMZ740>746-260300-
SOUTHERN LAKE MICHIGAN

STATION/POSITION SKY/WX   TEMP    WIND        PRES    VSBY  WAVE
                          AIR SEA DIR/SP/G                  HT/PER
                          (F)     (DEG/KT/KT) (MB)    (MI)  (FT/S)
SOUTHERN BUOY              72 71  140/  6/  8 1020.4          1
WILMETTE HARBOR            73 72  150/ 10/ 12   N/A           1/ 3
HARRISON CRIB              75     160/ 11/ 12   N/A
BURNHAM HARBOR             74                   N/A
CALUMET HARBOR             75     150/  7/  9 1020.0R
BURNS HARBOR               73     190/  3/ 11 1021.7
MICHIGAN CITY              73     170/  5/  6   N/A
MICHIGAN CITY 6N           74 75  170/  4/  6   N/A           1
ST. JOSEPH                 74 74  210/  8/ 10 1020.9          1/ 2
$$

ILZ025>027-034>036-040-047-049-050-058-095>099-260300-
WEST-CENTRAL ILLINOIS

CITY           SKY/WX    TMP DP  RH WIND       PRES   REMARKS
QUINCY         CLEAR     79  70  74 SE8       30.07S HX  82
GALESBURG*     CLEAR     73  67  82 E3        30.10R
MACOMB*        CLEAR     72  69  91 SE5       30.11R
JACKSONVILLE*  CLEAR     76  69  79 CALM      30.09R
PITTSFIELD*    CLEAR     78  72  81 E3        30.10R HX  80
$$

ILZ028>032-037-038-041>044-048-051>054-059>061-260300-
CENTRAL ILLINOIS

CITY           SKY/WX    TMP DP  RH WIND       PRES   REMARKS
PONTIAC        CLEAR     68  67  94 SE7       30.14R
BLOOMINGTON    CLEAR     69  65  86 E7        30.14R
DECATUR        CLEAR     72  67  84 SE6       30.11S
PEORIA         CLEAR     77  67  71 CALM      30.11R
LACON*         CLEAR     73  66  79 E7        30.11R
LINCOLN*       CLEAR     74  70  87 SE3       30.10R
SPRINGFIELD    CLEAR     77  70  79 SE7       30.09S
TAYLORVILLE    CLEAR     75  69  80 E5        30.10S
$$

ILZ033-039-045-046-055>057-062-063-260300-
EAST-CENTRAL ILLINOIS

CITY           SKY/WX    TMP DP  RH WIND       PRES   REMARKS
CHAMPAIGN      CLEAR     69  65  86 E3        30.12R
RANTOUL*       CLEAR     72  65  77 CALM      30.13R
MATTOON        CLEAR     73  68  84 E5        30.10S
PARIS*         CLEAR     67  64  90 E5        30.13S
$$

ILZ079-100>102-260300-
SOUTHWEST ILLINOIS

CITY           SKY/WX    TMP DP  RH WIND       PRES   REMARKS
ALTON          CLEAR     77  72  83 E6        30.07R
BELLEVILLE     CLEAR     80  73  79 SE5       30.07S HX  85
CAHOKIA*       CLEAR     83  71  67 E6        30.05S HX  87
SPARTA*        CLEAR     81  73  76 E7        30.07S HX  85
$$

ILZ064>066-069>071-074>076-080>082-084>086-088>090-092>094-260300-
SOUTH-CENTRAL ILLINOIS

CITY           SKY/WX    TMP DP  RH WIND       PRES   REMARKS
CARBONDALE     MOCLDY    81  74  79 E6        30.07R HX  86
CAIRO*         MOCLDY    80  76  87 E5        30.06S HX  86
EFFINGHAM*     CLEAR     75  70  86 E5        30.11R
MARION         CLEAR     81  75  83 CALM      30.08S HX  86
MT. VERNON     PTCLDY    79  71  76 E5        30.09S HX  82
CENTRALIA*     CLEAR     79  72  80 E3        30.08R HX  82
SALEM*         CLEAR     80  70  71 E3        30.09R HX  83
METROPOLIS*    PTCLDY    79  76  91 CALM      30.07S HX  83
$$

ILZ067-068-072-073-078-083-087-091-260300-
SOUTHEAST ILLINOIS

CITY           SKY/WX    TMP DP  RH WIND       PRES   REMARKS
LAWRENCEVILLE  CLEAR     75  69  81 E7        30.10S
FLORA*         CLEAR     78  70  77 E5        30.10R HX  80
FAIRFIELD*     CLOUDY    80  69  70 E6        30.07F HX  82
HARRISBURG*    CLEAR     78  73  86 E5        30.07F HX  80
ROBINSON*      CLEAR     71  68  90 E3        30.12R
CARMI*         PTCLDY    76  73  88 E3        30.08S
$$

ABBREVIATIONS USED IN REMARKS
   TC - TEMPERATURE IN CELSIUS
  WCI - WIND CHILL INDEX
   HX - HEAT INDEX
  VSB - VISIBILITY
$$





USA.gov is the U.S. government's official web portal to all federal, state and local government web resources and services.